AirNav   Pilot Hours Calculator
 
 1573 users online  

5NC3 Reed Mine Airport
Locust, North Carolina, USA

GOING TO LOCUST?


FAA INFORMATION EFFECTIVE 15 AUGUST 2019

Location

FAA Identifier: 5NC3
Lat/Long: 35-17-57.7900N 080-27-28.2000W
35-17.963167N 080-27.470000W
35.2993861,-80.4578333
(estimated)
Elevation: 581 ft. / 177 m (estimated)
From city: 3 miles NNW of LOCUST, NC
Time zone: UTC -4 (UTC -5 during Standard Time)
Zip code: 28097

Airport Operations

Airport use: Private use. Permission required prior to landing
Activation date: 01/2018
Control tower: no
ARTCC: ATLANTA CENTER
FSS: RALEIGH FLIGHT SERVICE STATION
Attendance: 
Segmented circle: no

Airport Communications

WX AWOS-3 at JQF (13 nm NW): 133.675 (704-785-2145)
WX AWOS-3 at VUJ (17 nm NE): 128.175 (704-986-2097)
WX ASOS at EQY (19 nm SW): 135.775 (704-283-5185)

Nearby radio navigation aids

VOR radial/distance  VOR name  Freq  Var
CLTr080/25.1CHARLOTTE VOR/DME115.0005W
CTFr350/40.0CHESTERFIELD VOR/DME108.2003W

 
NDB name  Hdg/Dist  Freq  Var  ID
STONIA085/34.926006WGHJ --. .... .---
LANCASTER037/39.840007WLKR .-.. -.- .-.

Airport Services

Runway Information

Runway 3/21

Dimensions: 2000 x 75 ft. / 610 x 23 m
Surface: turf, in fair condition
RUNWAY 3  RUNWAY 21
Traffic pattern: leftleft

Airport Ownership and Management from official FAA records

Ownership: Privately-owned
Owner: CHRISTOPHER LOGAN
9659 WIDESPREAD AVE NW
CONCORD, NC 28027
Phone 704-773-1676
Manager: CHRISTOPHER LOGAN
9659 WIDESPREAD AVE NW
CONCORD, NC 28027
Phone 704-773-1676

Additional Remarks

FOR CD CTC ATLANTA ARTCC AT 770-210-7692.

Instrument Procedures

There are no published instrument procedures at 5NC3.

Some nearby airports with instrument procedures:

KJQF - Concord-Padgett Regional Airport (13 nm NW)
KVUJ - Stanly County Airport (17 nm NE)
KEQY - Charlotte-Monroe Executive Airport (19 nm SW)
KRUQ - Mid-Carolina Regional Airport (21 nm N)
KCLT - Charlotte/Douglas International Airport (25 nm W)
 
Loc | Ops | Rwys | IFR | FBO | Links
Com | Nav | Svcs | Stats | Notes
Aerial photo
No photo
 
Airport distance calculator
Flying to Reed Mine Airport? Find the distance to fly.

From to 5NC3

Sunrise and sunset
Times for 21-Aug-2019
 Local
(UTC-4)
 Zulu
(UTC)
Morning civil twilight06:2010:20
Sunrise06:4710:47
Sunset20:0300:03
Evening civil twilight20:3000:30

Current date and time
Zulu (UTC)  21-Aug-2019 15:54:45
Local (UTC-4)  21-Aug-2019 11:54:45
 
METAR
KJQF 
14nm W 
211450Z 22007KT 10SM BKN013 27/23 A3011
KVUJ 
17nm NE 
211535Z AUTO 21006KT 10SM OVC014 27/24 A3014 RMK AO2 T02720236
KEQY 
19nm SW 
211506Z AUTO 25009KT 10SM BKN010 BKN014 26/22 A3009 RMK AO2 CIG 007V012 T02610222
KRUQ 
21nm N 
211535Z AUTO 17005KT 10SM SCT019 28/23 A3009 RMK AO2 T02770229
KCLT 
25nm W 
211539Z 20008KT 10SM SCT013 BKN250 27/23 A3011 RMK AO2 T02720228
KAFP 
25nm SE 
202335Z AUTO 10003KT 7SM RA SCT048 SCT050 25/23 A3008 RMK AO2 T02520232
TAF
KCLT 
25nm W 
211348Z 2114/2218 22005KT 6SM BR BKN004 OVC007 FM211500 23005KT P6SM SCT015 FM211600 23006KT P6SM SCT050 TEMPO 2121/2124 4SM TSRA OVC025CB FM220000 22007KT P6SM BKN250 FM221500 23004KT P6SM SCT050
NOTAMs
Click for the latest NOTAMs
NOTAMs are issued by the DoD/FAA and will open in a separate window not controlled by AirNav.

 

 
 

Would you like to see your business listed on this page?

 If your business provides an interesting product or service to pilots, flight crews, aircraft, or users of the Reed Mine Airport, you should consider listing it here.  To start the listing process, click on the button below
 
Add a business
 

Other Pages about Reed Mine Airport

Update a link
 
Copyright © AirNav, LLC. All rights reserved. Privacy Policy  Contact